This is the latest recevied weather packets stored in our database for station/object KC2WGU. If no packets are shown the sender has not sent any weather packets the latest 10 day(s).
| Time | Temp. | Humidity | Pressure | Rain* | Wind** | Luminosity | Snow |
|---|---|---|---|---|---|---|---|
| 1777038018 | 8.89° C | 51% | 1010.6 hPa | 0 mm | - | 0 W/m² | - |
| 1777037419 | 8.33° C | 53% | 1010.7 hPa | 0 mm | - | 0 W/m² | - |
| 1777036819 | 7.78° C | 53% | 1010.7 hPa | 0 mm | - | 0 W/m² | - |
| 1777036219 | 7.78° C | 54% | 1010.7 hPa | 0 mm | - | 0 W/m² | - |
| 1777035618 | 7.22° C | 57% | 1010.6 hPa | 0 mm | - | 0 W/m² | - |
| 1777035020 | 7.22° C | 57% | 1010.7 hPa | 0 mm | - | 0 W/m² | - |
| 1777034417 | 6.67° C | 58% | 1010.7 hPa | 0 mm | - | 0 W/m² | - |
| 1777033818 | 6.67° C | 57% | 1010.6 hPa | 0 mm | - | 0 W/m² | - |
| 1777033219 | 6.11° C | 60% | 1010.6 hPa | 0 mm | - | 0 W/m² | - |
| 1777032618 | 5.56° C | 61% | 1010.6 hPa | 0 mm | - | 0 W/m² | - |
| 1777032019 | 5.56° C | 61% | 1010.6 hPa | 0 mm | - | 0 W/m² | - |
| 1777031417 | 5.56° C | 61% | 1010.5 hPa | 0 mm | - | 0 W/m² | - |
| 1777030818 | 6.11° C | 60% | 1010.6 hPa | 0 mm | - | 0 W/m² | - |
| 1777030218 | 5.56° C | 62% | 1010.6 hPa | 0 mm | - | 0 W/m² | - |
| 1777029652 | 5.56° C | 63% | 1010.3 hPa | 0 mm | - | 0 W/m² | - |
| 1777029017 | 5.56° C | 62% | 1010.1 hPa | 0 mm | - | 0 W/m² | - |
| 1777028422 | 5° C | 61% | 1010.2 hPa | 0 mm | - | 0 W/m² | - |
| 1777027819 | 5° C | 61% | 1010.3 hPa | 0 mm | - | 0 W/m² | - |
| 1777027218 | 5.56° C | 61% | 1010.3 hPa | 0 mm | - | 0 W/m² | - |
| 1777026618 | 5.56° C | 61% | 1010.1 hPa | 0 mm | - | 0 W/m² | - |
| 1777026018 | 5.56° C | 60% | 1009.9 hPa | 0 mm | - | 0 W/m² | - |
| 1777025417 | 6.11° C | 61% | 1009.9 hPa | 0 mm | - | 0 W/m² | - |
| 1777024818 | 6.11° C | 60% | 1009.5 hPa | 0 mm | - | 0 W/m² | - |
| 1777024217 | 6.11° C | 60% | 1009.5 hPa | 0 mm | - | 0 W/m² | - |
| 1777023617 | 6.67° C | 60% | 1009.3 hPa | 0 mm | - | 0 W/m² | - |
* Rain latest hour (hover to see other rain measurements)
** Current wind speed in m/s (hover to see current wind gust speed)